Theta_e
307 308 308 308 308 308 308 309 309 308 308 308 309 309 310 310 311 312 318 322 321 320 328 323 324 338 343 350 351 351 352 356 353 352 349 350 350 350 350 348 348 347 344 341 346
307 307 307 307 307 307 307 308 309 309 309 309 308 309 310 310 311 314 320 321 321 320 320 319 325 333 345 344 347 347 346 348 346 345 349 350 351 350 349 349 349 348 343 345 350
307 307 307 307 307 307 307 307 307 309 310 309 309 309 309 310 311 322 322 323 325 321 321 320 327 336 340 340 342 343 344 342 342 343 348 350 351 350 349 350 349 346 345 347 350
307 307 307 307 307 307 307 307 307 308 310 310 309 309 309 310 311 323 323 323 322 321 322 323 325 322 324 330 333 338 339 340 341 346 349 350 351 350 349 349 350 345 344 347 347
306 306 307 307 306 307 307 307 307 308 310 310 310 309 309 309 312 314 321 322 322 321 322 323 320 321 325 328 332 334 334 336 336 338 349 351 350 350 350 350 349 344 346 347 347
305 306 306 306 306 306 307 307 308 310 310 311 310 309 309 312 312 317 319 319 324 322 321 321 320 320 323 326 331 333 333 331 330 331 346 350 350 350 350 349 345 345 347 347 348
305 305 305 305 305 306 307 308 310 311 311 311 311 309 309 311 312 314 323 322 324 325 323 321 319 323 324 328 330 330 328 327 330 341 343 348 351 351 349 348 346 347 347 348 347
304 304 305 305 305 306 307 310 311 311 312 312 311 310 310 312 312 313 318 323 326 327 323 326 320 321 322 326 328 327 325 329 328 343 346 346 352 350 349 347 346 347 347 348 348
304 304 304 305 305 306 309 312 311 311 313 314 313 312 314 315 315 318 318 323 323 323 327 326 320 320 325 325 325 324 328 329 329 338 346 343 351 349 348 347 347 347 347 348 348
304 303 304 304 305 306 312 312 311 318 314 312 321 320 315 315 321 321 316 321 321 323 326 326 326 322 319 322 327 328 329 327 330 338 341 346 351 349 348 347 347 348 348 347 347
306 304 303 304 304 308 311 311 310 310 310 310 310 313 315 315 319 319 316 318 320 321 321 323 322 320 321 322 325 327 329 328 328 334 342 346 351 350 348 348 348 347 347 346 345
309 306 303 304 304 311 311 310 309 308 306 310 311 310 310 311 311 319 316 315 319 318 319 321 320 321 320 322 323 325 325 326 326 342 341 344 351 349 347 347 347 347 346 346 346
308 307 304 304 306 310 312 310 309 309 307 309 311 310 312 310 311 314 314 314 315 317 318 318 322 321 321 322 323 323 323 325 328 340 342 344 346 346 347 347 347 347 347 346 346
308 307 305 304 306 308 312 311 310 310 305 309 314 315 313 313 312 314 313 315 314 316 317 318 318 321 321 321 321 322 322 325 327 334 345 342 349 345 342 345 344 346 346 346 346
308 307 305 304 305 309 309 310 310 310 310 315 315 314 314 313 315 315 314 312 312 319 317 318 319 319 320 321 321 322 323 324 325 327 340 343 346 345 343 343 342 343 345 345 345
308 307 306 307 308 308 308 309 310 309 310 314 312 311 309 311 314 314 314 313 313 315 317 318 320 319 319 320 320 323 323 322 328 334 339 337 343 340 346 342 342 339 342 345 345
308 307 308 309 309 307 308 309 307 310 311 311 310 310 309 309 310 311 312 312 311 313 314 319 319 320 321 320 319 321 319 320 321 333 332 333 340 340 338 341 340 340 340 343 345
309 309 312 308 307 308 308 306 311 311 310 310 310 309 309 307 308 309 311 309 310 312 314 317 320 320 320 319 318 317 316 317 322 326 328 336 342 340 337 339 340 339 340 341 343
310 312 308 308 309 309 307 305 309 309 309 308 308 307 307 307 307 307 309 310 310 309 310 317 319 320 320 320 320 318 317 318 318 320 322 332 334 336 337 337 338 341 341 342 342
310 312 309 309 310 310 302 305 305 307 307 306 307 306 306 306 306 305 308 309 310 311 309 312 317 317 322 321 319 318 316 319 314 320 323 322 329 337 341 341 338 340 342 342 342
309 312 310 310 310 310 303 303 307 308 307 306 306 305 305 305 305 306 307 309 311 311 310 308 312 317 320 320 320 316 316 316 315 316 320 322 323 325 337 339 341 340 341 342 343
309 308 312 311 306 301 303 306 307 306 306 305 305 305 305 305 305 306 307 307 309 311 311 311 310 312 317 318 319 316 315 315 317 319 318 320 322 325 329 335 340 341 342 343 343
310 311 311 311 305 303 304 306 306 307 306 306 306 306 305 306 305 306 307 308 309 309 313 317 315 312 319 317 316 318 320 318 312 313 321 323 323 327 332 337 339 341 342 343 342
311 306 309 309 307 305 305 306 308 308 307 306 306 306 306 306 305 306 307 308 308 308 316 313 313 311 312 313 314 318 318 321 316 316 317 321 324 332 334 334 334 338 340 341 341
309 305 306 303 305 304 306 307 309 309 309 306 305 306 307 307 306 306 307 306 307 311 311 310 313 308 311 313 315 317 318 321 320 318 320 320 322 329 333 334 333 338 340 340 339
308 307 307 305 305 304 306 308 311 310 308 306 307 308 306 305 305 306 307 307 307 306 307 306 313 312 317 319 321 324 324 323 324 324 319 320 324 321 324 334 337 340 340 340 339
309 307 307 303 302 305 309 310 310 308 308 308 307 307 308 307 308 309 309 308 308 308 308 308 310 312 317 319 320 325 330 330 329 327 324 321 320 328 334 333 336 337 343 341 343
Wind_Speed
18 19 20 21 21 21 21 22 22 21 20 20 19 19 18 19 17 18 20 14 8 19 14 11 13 12 16 12 7 5 1 2 3 6 5 21 6 12 3 19 5 7 9 33 37
20 20 21 21 22 23 24 24 23 22 22 20 20 19 19 20 20 20 13 14 17 15 27 18 16 19 9 8 9 6 3 6 7 9 5 20 21 17 7 12 4 6 26 38 36
21 21 22 24 24 24 25 25 24 23 22 22 20 20 19 19 19 2 7 1 15 22 14 18 9 15 12 7 9 9 6 6 8 12 23 20 16 10 22 5 12 33 39 41 37
21 22 23 24 26 27 27 25 24 23 22 21 21 20 19 15 3 5 6 7 3 20 20 22 16 7 5 7 12 5 12 11 8 5 23 17 20 10 19 8 25 35 47 43 35
23 24 25 26 26 27 27 26 24 21 21 20 20 19 19 10 16 10 13 10 4 17 24 22 15 12 4 4 3 10 5 13 19 13 21 26 22 11 11 8 26 35 40 38 35
25 25 26 27 27 27 27 26 22 20 20 21 20 18 15 7 6 3 9 12 9 13 21 25 11 17 5 7 2 5 6 14 21 22 32 20 8 16 10 26 33 38 36 35 36
24 26 26 26 26 26 25 23 20 23 20 18 17 17 17 26 8 9 6 10 10 8 14 20 24 11 2 4 9 8 5 7 5 14 13 25 7 7 25 32 34 33 34 33 36
25 25 25 25 25 25 24 18 18 22 18 14 11 13 13 14 14 15 15 12 13 10 10 6 21 19 5 6 8 4 5 3 6 11 15 12 12 7 31 34 31 30 30 31 35
25 25 25 24 24 25 19 18 20 18 10 8 9 7 13 6 8 1 14 15 11 12 13 2 13 10 4 2 4 5 2 1 6 6 16 3 4 16 27 29 29 29 30 30 32
26 26 25 23 22 22 19 19 13 3 8 6 5 5 9 3 3 5 1 16 12 9 11 10 9 4 2 4 5 3 1 3 2 3 4 0 4 16 28 28 29 30 30 31 35
26 26 25 23 22 13 18 10 11 2 11 13 20 22 28 21 18 6 1 7 13 7 6 6 4 6 8 5 5 1 1 2 1 4 4 9 10 20 26 24 25 27 30 33 35
26 26 26 23 20 4 9 10 14 15 15 26 29 33 33 29 13 16 4 5 6 6 4 2 6 8 6 6 4 2 2 4 5 5 5 3 6 14 20 26 33 33 31 35 37
26 26 26 23 12 5 2 10 10 16 6 13 9 12 8 16 15 24 11 6 4 5 5 6 6 6 6 4 4 2 4 2 1 4 8 12 4 5 12 17 22 28 34 38 43
25 24 25 25 5 14 1 10 12 10 4 7 5 4 2 3 5 20 21 11 3 8 7 5 5 5 6 5 6 5 6 4 5 2 4 2 4 5 7 15 15 27 30 34 37
24 22 22 20 17 7 7 9 7 2 3 3 4 6 16 5 7 2 12 13 9 6 7 8 7 7 7 10 7 6 5 6 5 3 4 3 3 6 7 11 17 25 36 38 39
24 21 22 16 9 5 8 6 1 5 5 7 8 8 8 9 9 7 4 6 8 4 1 7 4 6 11 7 7 3 4 3 5 4 1 8 7 5 8 20 21 17 31 40 41
25 21 15 8 1 7 11 1 4 3 7 8 6 8 3 7 9 8 2 3 4 5 4 2 6 3 2 3 3 5 6 1 0 1 6 8 3 14 12 20 21 24 34 40 43
23 17 8 9 5 9 8 4 2 3 3 4 6 5 6 10 7 8 4 5 12 6 4 6 4 8 4 9 7 7 8 5 5 5 5 5 7 10 15 21 36 27 34 39 40
20 7 13 7 7 11 6 4 2 2 4 5 4 6 6 6 6 7 8 7 6 10 3 1 6 4 6 5 12 5 5 10 4 2 2 4 8 7 9 10 12 21 28 37 39
16 6 9 2 3 8 5 2 2 3 4 4 4 6 7 7 8 7 7 8 8 9 5 3 4 5 4 5 4 7 7 4 2 5 5 5 5 8 5 13 11 10 22 29 33
8 2 3 1 5 5 3 4 3 7 3 4 2 4 4 5 3 6 7 6 11 12 7 6 2 7 6 5 7 3 2 3 5 5 6 2 7 8 12 12 12 16 22 26 30
6 2 2 6 3 3 1 2 6 5 7 6 4 3 3 3 5 6 4 4 16 15 5 4 1 4 8 3 3 6 7 7 5 5 1 5 7 4 9 11 10 18 18 22 28
9 5 10 1 3 3 6 5 5 2 4 3 2 3 1 2 4 2 5 14 20 11 7 7 3 5 2 5 6 6 3 3 2 3 7 6 7 4 5 2 13 15 18 23 25
6 4 6 10 6 3 4 4 4 7 1 3 3 3 4 3 1 4 4 3 18 14 10 2 2 4 4 7 4 4 5 2 3 3 4 6 5 5 7 8 9 16 21 24 25
6 2 3 3 4 4 2 2 3 5 6 5 2 3 4 1 3 3 2 5 8 5 8 4 3 4 7 8 4 5 7 5 5 6 5 7 9 10 7 7 10 25 25 25 29
4 4 4 3 7 4 5 5 5 4 3 6 2 3 4 5 6 6 2 1 4 5 6 5 2 6 5 5 3 4 8 8 8 6 6 5 8 7 9 2 10 18 20 19 26
2 2 3 5 6 2 2 3 4 5 5 5 6 2 3 2 7 10 10 9 7 2 2 2 2 5 5 4 7 2 4 3 4 6 4 6 9 6 4 7 10 20 17 14 9
Wind_Direction
355 353 351 350 348 345 342 337 334 333 330 330 331 329 322 313 300 287 269 266 253 220 189 194 181 182 182 198 192 187 59 262 242 185 224 152 131 159 164 145 154 164 161 161 158
349 347 345 343 342 341 339 336 331 327 325 325 326 326 325 321 311 290 283 249 232 217 216 212 189 183 200 199 195 179 154 225 220 233 173 163 159 155 127 152 93 124 146 154 160
343 341 339 337 335 334 333 332 328 325 320 317 321 322 323 326 320 97 99 210 223 205 206 201 198 183 222 201 190 190 215 182 261 258 170 164 164 158 146 186 187 151 152 162 166
335 334 334 331 329 328 327 326 324 321 316 312 312 315 319 319 301 173 136 62 64 190 186 195 203 200 218 207 211 254 245 244 266 177 164 164 163 146 165 207 188 173 162 164 172
333 332 331 329 326 324 323 323 321 315 308 305 306 307 315 296 265 269 241 265 233 187 187 187 195 203 221 244 223 221 240 268 277 234 172 163 183 170 196 182 169 162 163 169 176
331 330 327 326 325 323 322 321 319 309 299 300 299 296 297 266 270 255 231 223 200 201 205 207 214 211 267 273 202 269 278 294 297 272 169 167 168 142 182 161 160 163 166 174 180
331 328 326 326 324 322 320 322 319 305 306 298 289 284 274 259 269 270 193 196 206 222 220 216 215 186 193 270 294 302 339 323 295 140 155 139 157 196 162 160 161 168 172 177 188
332 329 327 327 326 324 325 323 319 309 305 300 284 278 262 282 250 248 220 209 205 221 219 274 219 231 259 299 323 329 62 354 306 110 149 143 189 144 160 159 167 173 178 184 194
332 330 327 330 330 327 331 327 315 309 313 304 277 264 264 276 263 5 229 217 207 233 221 202 194 215 232 101 2 355 190 201 324 187 164 123 152 160 165 167 169 178 183 192 200
333 330 329 331 333 331 334 327 325 295 323 318 267 281 264 297 257 302 48 208 221 212 222 201 202 161 42 119 217 178 129 209 275 167 147 126 142 161 173 172 176 182 188 195 205
334 330 332 335 338 340 346 4 10 295 300 278 274 268 275 285 286 240 56 190 218 204 164 176 153 198 208 171 199 338 331 321 221 293 144 179 156 174 174 178 185 188 195 198 201
333 332 334 336 337 348 14 48 21 337 296 292 281 267 262 268 294 251 268 180 168 194 111 40 211 214 181 183 210 211 269 265 291 39 107 155 164 163 180 187 189 190 195 202 204
334 335 334 338 336 332 4 17 339 334 294 301 292 277 292 216 222 249 222 189 142 140 170 165 234 177 180 219 201 194 212 153 210 13 40 107 34 153 201 203 207 209 205 200 203
334 339 334 336 342 335 135 326 322 324 38 281 303 345 253 156 250 244 236 201 159 178 144 223 232 194 194 211 143 252 187 162 235 104 165 81 201 240 194 207 213 213 213 214 208
334 341 328 330 326 345 320 316 302 314 358 340 1 55 327 211 317 1 225 197 173 180 125 229 176 180 215 220 149 217 159 210 220 204 106 290 98 232 156 219 216 211 211 215 213
335 339 323 328 328 345 330 318 168 45 258 346 9 340 15 359 346 357 169 176 186 140 109 217 245 168 193 211 168 159 277 42 59 110 169 217 183 234 189 210 214 208 209 213 213
335 336 321 328 56 348 338 340 48 140 329 359 327 340 44 339 356 349 296 161 135 114 234 311 251 238 171 174 161 147 105 256 44 104 221 183 178 235 212 208 206 207 205 211 213
336 340 345 101 56 6 3 52 144 2 355 340 335 344 56 4 353 329 6 35 24 359 142 173 272 188 186 177 187 180 156 163 167 183 220 122 225 245 221 218 218 221 211 205 211
343 36 113 93 44 12 4 68 164 315 299 324 329 36 357 358 349 351 34 38 47 28 37 356 255 260 167 165 167 190 147 204 98 2 55 215 281 300 232 239 182 194 204 208 219
351 72 124 133 360 354 65 239 229 295 339 55 59 39 20 355 21 19 22 12 347 356 310 320 294 250 199 147 210 156 173 97 358 145 195 282 266 230 261 241 231 214 208 217 218
1 101 158 263 306 328 114 234 299 354 54 57 61 54 86 14 10 342 335 52 19 341 12 4 65 295 123 196 171 91 158 59 130 146 159 187 260 219 235 241 205 222 217 213 219
14 60 22 251 42 27 52 286 347 350 39 49 82 78 79 45 359 354 353 54 12 12 5 325 150 286 237 266 202 155 187 163 136 226 217 162 266 220 254 250 219 222 211 214 224
354 335 21 62 77 347 319 330 8 59 19 51 89 88 80 67 5 337 347 338 8 16 2 340 340 338 39 20 19 59 30 58 124 89 189 153 252 321 287 249 226 225 201 209 218
3 9 15 61 63 96 8 322 341 344 199 143 152 86 51 37 59 315 306 322 349 336 330 200 241 185 180 252 223 303 314 287 138 125 176 212 257 282 243 246 237 220 218 210 203
15 39 23 341 342 349 255 325 358 8 336 9 40 151 149 227 319 225 262 324 313 21 3 73 260 213 247 243 217 238 256 266 197 222 182 226 200 244 215 224 241 228 229 225 213
28 7 4 339 322 336 358 2 15 339 319 334 215 233 159 174 206 262 206 114 254 343 15 347 279 346 274 263 248 244 239 235 229 237 237 242 238 232 258 215 185 196 212 227 225
50 334 337 353 348 61 28 2 2 348 246 34 323 11 341 295 288 285 273 243 221 212 327 313 69 21 264 294 296 194 328 333 282 37 307 183 226 193 216 172 185 160 157 120 107